Regional Weather Roundup
Issued by NWS

Home | Current Version | Previous Version | Graphics & Text | Print | Product List | Glossary Off
Versions: 1 2 3 4 5 6 7 8 9 10 11 12 13 14 15 16 17 18 19 20 21 22 23 24 25 26 27 28 29 30 31 32 33 34 35 36 37 38 39 40 41 42 43 44 45 46 47 48 49 50

000
ASUS43 KMKX 310211
RWRWI

WISCONSIN REGIONAL WEATHER ROUNDUP
NATIONAL WEATHER SERVICE MILWAUKEE/SULLIVAN WI
900 PM CDT THU OCT 30 2014

NOTE: "FAIR" INDICATES FEW OR NO CLOUDS BELOW 12,000 FEET WITH NO
SIGNIFICANT WEATHER AND/OR OBSTRUCTIONS TO VISIBILITY.

WIZ001-002-006>008-014>016-023>028-310300-
NORTHWEST WISCONSIN

CITY           SKY/WX    TMP DP  RH WIND       PRES   REMARKS
SUPERIOR ARPT  CLEAR     32  19  59 N20G32    30.27R WCI  20
ASHLAND        LGT SNOW  33  28  81 NW18G33   30.18R WCI  22
HAYWARD        LGT SNOW  32  26  78 N14G28    30.20R WCI  22
SIREN          CLOUDY    35  19  52 N23G32    30.25R WCI  23
CUMBERLAND     FLURRIES  32  28  86 N14G23    30.20R WCI  22
RICE LAKE      CLOUDY    35  30  84 NW17G29   30.20R WCI  24
CHETEK         LGT RAIN  38  29  71 NW20G32   30.17R WCI  27
LADYSMITH      DRIZZLE   37  32  82 NW21G29   30.15R WCI  26
EAU CLAIRE     CLOUDY    42  29  59 NW14G23   30.15R
MENOMONIE      CLOUDY    41  30  65 NW15G22   30.18R
NEW RICHMOND   CLOUDY    38  24  58 N25G33    30.23R WCI  27
OSCEOLA        CLOUDY    38  25  59 N20G29    30.27R WCI  28
$$

WIZ003>005-009-010-017-018-310300-
NORTH CENTRAL WISCONSIN

CITY           SKY/WX    TMP DP  RH WIND       PRES   REMARKS
MANITOWISH WTR CLOUDY    32  31  97 NW12G18   30.06S WCI  23
ARBOR VITAE    LGT SNOW  37  34  91 NW13G20   30.05R WCI  28
WOODRUFF       LGT SNOW  37  34  91 NW13G20   30.05R WCI  28
RHINELANDER    MIX PCPN  36  31  82 W13       30.03F WCI  27
EAGLE RIVER    LGT SNOW  33  32  96 NW13      30.03R WCI  24
LAND O LAKES   LGT SNOW  34  32  94 NW10G17   30.03S WCI  26
PHILLIPS       CLOUDY    34  31  90 NW8       30.08S WCI  27
TOMAHAWK       LGT RAIN  37  31  79 NW17G24   30.06S WCI  27
MEDFORD        CLOUDY    38  32  80 NW9G21    30.07F WCI  31
MERRILL        CLOUDY    38  32  78 NW6       30.05S WCI  33
$$

WIZ029-030-035-036-043>047-310300-
CENTRAL WISCONSIN

CITY           SKY/WX    TMP DP  RH WIND       PRES   REMARKS
WAUSAU         CLOUDY    41  30  65 NW8       30.04S
MOSINEE        CLOUDY    39  34  81 NW17G23   30.06S WCI  30
MARSHFIELD     CLOUDY    41  32  70 NW17      30.07S
STEVENS POINT  CLOUDY    40  32  71 NW8G16    30.06S
WAUPACA        CLOUDY    45  33  63 NW9G16    30.05R
WAUTOMA        CLOUDY    45  33  62 N16G22    30.06R
WISC RAPIDS    CLOUDY    43  32  65 NW13G21   30.08S
CAMP DOUGLAS   CLOUDY    45  39  81 NW17G24   30.09R
$$

WIZ011>013-019>022-031-037>040-048>050-310300-
NORTHEAST WISCONSIN

CITY           SKY/WX    TMP DP  RH WIND       PRES   REMARKS
ANTIGO         PTCLDY    36  31  81 NW7       30.03S WCI  30
SHAWANO        CLOUDY    45  33  63 NW6       30.03S
OCONTO         CLOUDY    43  33  67 NW5       30.00F
STURGEON BAY   CLOUDY    45  30  57 NW15      29.99F
GREEN BAY      CLOUDY    45  35  68 NW13      30.01F
MANITOWOC      CLOUDY    46  37  71 NW8       30.00F
APPLETON       MOCLDY    45  32  61 NW14      30.02S
CLINTONVILLE   CLOUDY    43  32  65 NW9       30.03S
OSHKOSH        CLOUDY    46  35  65 NW13      30.02S
$$

WIZ032>034-041-042-053>061-310300-
SOUTHWEST WISCONSIN

CITY           SKY/WX    TMP DP  RH WIND       PRES   REMARKS
LA CROSSE      CLOUDY    46  34  62 N23G30    30.13R
SPARTA         CLOUDY    43  32  64 N14G21    30.12
VIROQUA        CLOUDY    43  38  82 NW8       30.09S
BOSCOBEL       CLOUDY    48  37  65 W3        30.10S
PRAIRIE DU CHI DRIZZLE   46  38  74 NW5       30.11S
PLATTEVILLE    CLOUDY    46  39  79 W5        30.09S
$$

WIZ056-057-062-063-064-067-068-310300-
SOUTH CENTRAL WISCONSIN

CITY           SKY/WX    TMP DP  RH WIND       PRES   REMARKS
REEDSBURG      CLOUDY    44  37  73 NW6       30.06S
BARABOO/DELLS  CLOUDY    45  35  69 W6        30.06S
LONE ROCK      CLOUDY    50  36  58 W8        30.08S
MINERAL POINT  CLOUDY    46  37  71 W6        30.08R
MADISON        CLOUDY    46  36  68 W5        30.05F
MIDDLETON      CLOUDY    46  37  68 W6        30.06S
WATERTOWN      CLOUDY    45  36  71 W5        30.04R
MONROE         CLOUDY    45  37  76 W7        30.06S
JANESVILLE     CLOUDY    45  37  76 W8        30.05S
$$

WIZ051-052-058>065-066-070>072-310300-
SOUTHEAST WISCONSIN

CITY           SKY/WX    TMP DP  RH WIND       PRES   REMARKS
MILWAUKEE      CLOUDY    48  34  58 W6        30.03F
WAUKESHA       CLOUDY    45  34  65 SW8       30.03F
MILWAUKEE/TIMM CLOUDY    46  34  61 CALM      30.03F
RACINE         CLOUDY    47  34  60 W5        30.04F
BURLINGTON     CLOUDY    41  35  79 SW3       30.04S
KENOSHA        CLOUDY    43  36  76 W6        30.04F
FOND DU LAC    CLOUDY    46  36  68 W7        30.02S
SHEBOYGAN      CLOUDY    44  36  73 SW5       30.00F
WEST BEND      CLOUDY    45  34  65 W8        30.01F
JUNEAU         CLOUDY    44  36  72 W7        30.04S
$$

LSZ147-162-310300-
LAKE SUPERIOR

STATION/POSITION TIME  TEMP    WIND        PRES    WAVE
                       AIR SEA DIR/SP/G            HT/PER
                 (UTC) (F)     (DEG/KT/KT) (MB)    (FT/S)
W MID LAKE BUOY  0150   36 45  340/ 29/ 35 1019.3R   4/ 5
DEVILS ISLAND    0200   36     350/ 36/ 42 1022.5R
PORT WING        0100   38     330/ 28     1022.7R
SAXON HARBOR     0111   41     320/ 21/ 27 1019.6R
$$

LMZ867-665-643>646-310300-
LAKE MICHIGAN

STATION/POSITION TIME  TEMP    WIND        PRES    WAVE
                       AIR SEA DIR/SP/G            HT/PER
                 (UTC) (F)     (DEG/KT/KT) (MB)    (FT/S)
CHAMBERS ISLAND  0100   45     300/ 10/ 15 1015.9S
N MID LAKE BUOY  0150   46 51  300/ 16/ 19 1014.8F   2/ 3
NORTHPORT PIER   0100   46     300/ 11/ 19 1015.6S
KEWAUNEE LAKESHO 0100                      1015.1F
SHEBOYGAN LAKESH 0200   47 50  240/  8/ 10 1016.5F
PORT WASHINGTON  0140   48     260/  5/  7 1016.9F
ATWATER BUOY     0200   50     260/  8/ 10 1017.7F
MILWAUKEE LAKESH 0100   49     270/  5/  7   N/A
S MID LAKE BUOY  0150   50 53  290/ 10/ 12 1017.0F   1/ 4
KENOSHA   LAKESH 0200   48     260/  5/  7 1016.9F
$$

TC  - TEMPERATURE IN CELSIUS
VSB - VISIBILITY IN STATUTE MILES
WCI - WIND CHILL INDEX
HX  - HEAT INDEX




USA.gov is the U.S. government's official web portal to all federal, state and local government web resources and services.